Cloud_Cover
10 2 12 20 12 8 0 0 0 0 0 0 0 0 0 0 0 0 0 0 0 0 0 4 5 63 83 93 100 100 100 100 100 100 72 28 57 5 82 75 54 50 100 53 95
10 20 18 4 3 0 0 0 0 0 0 0 0 0 0 0 0 0 0 0 0 0 0 0 11 6 89 100 100 100 100 95 100 100 100 27 7 5 52 95 70 5 46 28 88
8 5 0 0 0 0 0 0 0 0 0 0 0 0 0 0 0 0 0 0 0 0 0 5 3 82 100 98 100 100 100 100 100 100 100 93 99 50 76 48 6 24 95 10 76
5 2 3 0 0 0 0 0 0 0 0 0 0 0 0 0 0 0 0 0 0 0 0 0 7 68 100 100 14 71 100 100 100 100 100 100 100 47 100 100 29 6 35 24 46
8 0 0 1 0 0 0 0 0 0 0 0 0 0 0 0 0 0 0 0 0 0 0 0 4 5 7 23 9 82 83 100 96 100 100 89 100 100 99 100 54 80 71 17 56
4 0 0 0 1 0 0 0 0 0 0 0 0 0 0 0 0 0 0 0 0 0 0 0 5 5 33 84 62 94 87 76 100 80 94 94 100 100 100 100 63 71 44 8 77
0 0 0 0 12 11 0 0 0 0 0 0 0 0 0 0 0 0 0 0 0 0 0 0 5 66 33 5 94 100 99 45 5 100 35 61 95 100 63 96 100 97 18 5 94
0 0 0 0 0 17 21 4 0 0 0 0 0 0 0 0 0 0 0 0 0 0 0 0 0 8 5 5 5 60 13 43 18 73 41 92 100 100 100 100 96 66 28 4 17
10 1 0 0 4 23 11 0 0 0 0 0 0 0 0 0 0 0 0 0 0 0 0 0 1 2 4 5 1 1 40 31 88 100 21 100 100 100 100 99 91 96 85 4 56
45 3 0 0 19 32 13 0 0 0 0 0 0 0 0 0 0 0 0 0 0 0 0 0 0 0 0 1 1 89 19 96 48 100 88 100 100 91 52 96 100 100 98 100 100
21 0 0 0 0 43 14 0 0 0 0 0 0 0 0 0 0 0 0 0 0 0 0 0 0 0 0 0 4 86 75 70 70 50 100 52 100 100 100 98 99 100 100 100 100
0 0 0 0 0 1 44 0 0 0 0 0 0 0 0 0 0 0 0 0 0 0 0 0 0 0 0 0 4 6 91 63 88 92 54 91 100 100 100 96 51 100 100 60 100
0 0 0 0 1 0 0 0 0 0 0 0 0 0 0 0 0 0 0 0 0 0 0 0 0 0 0 0 1 5 76 84 100 61 99 100 100 100 100 99 99 100 100 100 97
0 0 0 0 0 0 0 0 0 0 0 0 0 0 0 0 0 0 0 0 0 0 0 0 0 0 0 0 0 1 5 85 99 90 100 88 100 100 100 100 100 100 100 100 97
0 0 0 0 0 0 0 0 0 0 0 0 0 0 0 0 0 0 0 0 0 0 0 0 0 0 0 0 0 0 5 100 100 83 92 93 95 100 97 100 100 100 100 100 100
0 0 0 0 0 0 0 0 0 0 0 0 0 0 0 0 0 0 0 0 0 0 0 0 0 0 0 0 0 0 4 100 100 100 61 47 100 100 100 100 100 100 100 100 100
0 0 24 0 0 0 0 0 0 0 0 0 0 0 0 0 0 0 0 0 0 0 0 0 0 0 0 0 2 0 2 49 99 81 8 49 79 100 100 92 100 100 100 100 100
0 0 0 0 0 0 0 0 0 0 0 0 0 1 0 0 0 0 0 0 0 0 0 0 0 0 0 0 0 5 4 95 99 44 10 2 0 52 100 100 100 100 98 100 100
0 0 0 0 0 0 0 0 0 0 48 0 2 4 0 0 0 0 0 0 0 0 0 0 0 0 0 0 1 1 32 5 97 6 51 5 3 100 79 30 98 99 100 91 84
0 0 0 0 0 0 0 0 0 1 67 0 90 2 0 0 0 0 0 0 0 0 0 0 0 0 0 0 0 3 10 50 64 58 48 5 96 62 39 50 9 100 85 64 12
0 0 0 0 0 0 0 1 8 79 3 0 1 0 0 0 0 0 0 0 1 0 0 0 0 0 0 0 0 0 4 97 6 41 0 2 1 100 95 89 85 95 100 100 95
0 2 0 0 0 4 30 5 64 88 82 1 0 0 0 0 0 0 0 0 16 0 0 0 0 0 0 0 0 0 0 92 5 36 0 5 1 100 100 100 100 100 10 75 100
0 7 11 1 21 85 96 22 99 70 1 3 0 0 0 0 0 0 9 57 5 5 0 0 0 0 0 0 0 0 0 10 94 99 0 4 7 14 100 92 74 100 97 87 21
0 58 60 89 9 28 5 2 21 16 0 0 0 0 3 0 0 42 100 38 16 95 2 0 0 0 0 0 0 0 0 0 25 38 1 0 43 97 100 46 91 100 93 95 49
0 4 0 1 20 1 5 0 0 0 1 0 0 0 0 0 0 5 100 9 67 26 4 0 0 0 0 0 0 0 0 0 97 87 30 3 65 100 33 3 97 38 76 60 53
0 0 0 5 45 5 0 0 0 0 0 0 2 0 0 0 0 0 3 64 66 94 0 5 0 0 0 0 1 1 0 0 1 3 5 89 100 95 35 100 32 17 100 99 100
0 0 1 5 18 8 0 0 0 0 0 5 5 4 1 0 0 0 0 0 48 95 99 30 5 0 0 0 37 80 5 65 95 88 1 96 100 11 95 68 5 5 88 5 6